Time,TemperatureF,DewpointF,PressureIn,WindDirection,WindDirectionDegrees,WindSpeedMPH,WindSpeedGustMPH,Humidity,HourlyPrecipIn,Conditions,Clouds,dailyrainin,SolarRadiationWatts/m^2,SoftwareType,DateUTC
2013-03-04 00:01:00,22.0,11.0,-100.00,NNW,341,3.0,10.0,63,0.00,,,0.14,0.000000,,2013-03-04 07:01:00,
2013-03-04 00:32:00,21.0,10.0,-100.00,North,349,3.0,10.0,62,0.00,,,0.11,0.000000,,2013-03-04 07:32:00,
2013-03-04 00:42:00,21.0,10.0,-100.00,North,349,3.0,10.0,62,0.00,,,0.11,0.000000,,2013-03-04 07:42:00,
2013-03-04 00:52:00,21.0,10.0,-100.00,North,349,3.0,10.0,62,0.00,,,0.11,0.000000,,2013-03-04 07:52:00,
2013-03-04 01:01:00,21.0,10.0,-100.00,North,349,3.0,10.0,62,0.00,,,0.11,0.000000,,2013-03-04 08:01:00,
2013-03-04 01:32:00,20.0,14.0,-100.00,WNW,295,1.0,12.0,76,0.00,,,0.10,0.000000,,2013-03-04 08:32:00,
2013-03-04 01:42:00,20.0,14.0,-100.00,WNW,295,1.0,12.0,76,0.00,,,0.10,0.000000,,2013-03-04 08:42:00,
2013-03-04 01:52:00,20.0,14.0,-100.00,WNW,295,1.0,12.0,76,0.00,,,0.10,0.000000,,2013-03-04 08:52:00,
2013-03-04 02:01:00,20.0,14.0,-100.00,WNW,295,1.0,12.0,76,0.00,,,0.10,0.000000,,2013-03-04 09:01:00,
2013-03-04 02:22:00,20.0,16.0,-100.00,SSE,167,1.0,2.0,83,0.00,,,0.08,0.000000,,2013-03-04 09:22:00,
2013-03-04 02:32:00,20.0,16.0,-100.00,SSE,167,1.0,2.0,83,0.00,,,0.08,0.000000,,2013-03-04 09:32:00,
2013-03-04 02:42:00,20.0,16.0,-100.00,SSE,167,1.0,2.0,83,0.00,,,0.08,0.000000,,2013-03-04 09:42:00,
2013-03-04 02:52:00,20.0,16.0,-100.00,SSE,167,1.0,2.0,83,0.00,,,0.08,0.000000,,2013-03-04 09:52:00,
2013-03-04 03:01:00,20.0,16.0,-100.00,SSE,167,1.0,2.0,83,0.00,,,0.08,0.000000,,2013-03-04 10:01:00,
2013-03-04 03:32:00,19.0,15.0,-100.00,NNE,31,3.0,9.0,85,0.00,,,0.08,0.000000,,2013-03-04 10:32:00,
2013-03-04 03:42:00,19.0,15.0,-100.00,NNE,31,3.0,9.0,85,0.00,,,0.08,0.000000,,2013-03-04 10:42:00,
2013-03-04 03:52:00,19.0,15.0,-100.00,NNE,31,3.0,9.0,85,0.00,,,0.08,0.000000,,2013-03-04 10:52:00,
2013-03-04 04:01:00,19.0,15.0,-100.00,NNE,31,3.0,9.0,85,0.00,,,0.08,0.000000,,2013-03-04 11:01:00,
2013-03-04 04:22:00,18.0,14.0,-100.00,NE,35,3.0,10.0,85,0.00,,,0.08,0.000000,,2013-03-04 11:22:00,
2013-03-04 04:32:00,18.0,14.0,-100.00,NE,35,3.0,10.0,85,0.00,,,0.08,0.000000,,2013-03-04 11:32:00,
2013-03-04 04:42:00,18.0,14.0,-100.00,NE,35,3.0,10.0,85,0.00,,,0.08,0.000000,,2013-03-04 11:42:00,
2013-03-04 04:52:00,18.0,14.0,-100.00,NE,35,3.0,10.0,85,0.00,,,0.08,0.000000,,2013-03-04 11:52:00,
2013-03-04 05:01:00,18.0,14.0,-100.00,NE,35,3.0,10.0,85,0.00,,,0.08,0.000000,,2013-03-04 12:01:00,
2013-03-04 05:02:00,18.0,14.0,-100.00,NNE,32,2.0,7.0,85,0.00,,,0.08,0.000000,,2013-03-04 12:02:00,
2013-03-04 05:22:00,18.0,14.0,-100.00,NNE,32,2.0,7.0,85,0.00,,,0.08,0.000000,,2013-03-04 12:22:00,
2013-03-04 05:32:00,18.0,14.0,-100.00,NNE,32,2.0,7.0,85,0.00,,,0.08,0.000000,,2013-03-04 12:32:00,
2013-03-04 05:42:00,18.0,14.0,-100.00,NNE,32,2.0,7.0,85,0.00,,,0.08,0.000000,,2013-03-04 12:42:00,
2013-03-04 05:52:00,18.0,14.0,-100.00,NNE,32,2.0,7.0,85,0.00,,,0.08,0.000000,,2013-03-04 12:52:00,
2013-03-04 06:22:00,17.0,12.0,-100.00,SSE,162,2.0,5.0,81,0.00,,,0.08,0.000000,,2013-03-04 13:22:00,
2013-03-04 06:32:00,17.0,12.0,-100.00,SSE,162,2.0,5.0,81,0.00,,,0.08,0.000000,,2013-03-04 13:32:00,
2013-03-04 06:42:00,17.0,12.0,-100.00,SSE,162,2.0,5.0,81,0.00,,,0.08,0.000000,,2013-03-04 13:42:00,
2013-03-04 06:52:00,17.0,12.0,-100.00,SSE,162,2.0,5.0,81,0.00,,,0.08,0.000000,,2013-03-04 13:52:00,
2013-03-04 07:01:00,17.0,12.0,-100.00,SSE,162,2.0,5.0,81,0.00,,,0.08,0.000000,,2013-03-04 14:01:00,
2013-03-04 07:32:00,15.0,10.0,-100.00,North,357,3.0,6.0,81,0.00,,,0.08,0.000000,,2013-03-04 14:32:00,
2013-03-04 07:42:00,15.0,10.0,-100.00,North,357,3.0,6.0,81,0.00,,,0.08,0.000000,,2013-03-04 14:42:00,
2013-03-04 07:52:00,15.0,10.0,-100.00,North,357,3.0,6.0,81,0.00,,,0.08,0.000000,,2013-03-04 14:52:00,
2013-03-04 08:01:00,15.0,10.0,-100.00,North,357,3.0,6.0,81,0.00,,,0.08,0.000000,,2013-03-04 15:01:00,
2013-03-04 08:02:00,18.0,11.0,-100.00,North,355,3.0,7.0,74,0.00,,,0.07,9.000000,,2013-03-04 15:02:00,
2013-03-04 08:32:00,18.0,11.0,-100.00,North,355,3.0,7.0,74,0.00,,,0.07,9.000000,,2013-03-04 15:32:00,
2013-03-04 08:42:00,18.0,11.0,-100.00,North,355,3.0,7.0,74,0.00,,,0.07,9.000000,,2013-03-04 15:42:00,
2013-03-04 08:52:00,18.0,11.0,-100.00,North,355,3.0,7.0,74,0.00,,,0.07,9.000000,,2013-03-04 15:52:00,
2013-03-04 09:32:00,25.0,15.0,-100.00,ENE,66,4.0,8.0,65,0.00,,,0.07,60.000000,,2013-03-04 16:32:00,
2013-03-04 10:01:00,25.0,15.0,-100.00,ENE,66,4.0,8.0,65,0.00,,,0.07,60.000000,,2013-03-04 17:01:00,
2013-03-04 10:22:00,28.0,12.0,-100.00,SE,125,4.0,9.0,51,0.04,,,0.11,121.000000,,2013-03-04 17:22:00,
2013-03-04 11:32:00,26.0,8.0,-100.00,SSE,147,5.0,10.0,46,0.02,,,0.10,105.000000,,2013-03-04 18:32:00,
2013-03-04 11:42:00,26.0,8.0,-100.00,SSE,147,5.0,10.0,46,0.02,,,0.10,105.000000,,2013-03-04 18:42:00,
2013-03-04 11:52:00,26.0,8.0,-100.00,SSE,147,5.0,10.0,46,0.02,,,0.10,105.000000,,2013-03-04 18:52:00,
2013-03-04 12:01:00,26.0,8.0,-100.00,SSE,147,5.0,10.0,46,0.02,,,0.10,105.000000,,2013-03-04 19:01:00,
2013-03-04 12:32:00,29.0,13.0,-100.00,SE,141,4.0,10.0,50,0.02,,,0.09,126.000000,,2013-03-04 19:32:00,
2013-03-04 12:42:00,29.0,13.0,-100.00,SE,141,4.0,10.0,50,0.02,,,0.09,126.000000,,2013-03-04 19:42:00,
2013-03-04 12:52:00,29.0,13.0,-100.00,SE,141,4.0,10.0,50,0.02,,,0.09,126.000000,,2013-03-04 19:52:00,
2013-03-04 13:01:00,29.0,13.0,-100.00,SE,141,4.0,10.0,50,0.02,,,0.09,126.000000,,2013-03-04 20:01:00,
2013-03-04 13:32:00,33.0,15.0,-100.00,SE,143,3.0,9.0,48,0.01,,,0.10,121.000000,,2013-03-04 20:32:00,
2013-03-04 13:42:00,33.0,15.0,-100.00,SE,143,3.0,9.0,48,0.01,,,0.10,121.000000,,2013-03-04 20:42:00,
2013-03-04 13:52:00,33.0,15.0,-100.00,SE,143,3.0,9.0,48,0.01,,,0.10,121.000000,,2013-03-04 20:52:00,
2013-03-04 14:01:00,33.0,15.0,-100.00,SE,143,3.0,9.0,48,0.01,,,0.10,121.000000,,2013-03-04 21:01:00,
2013-03-04 14:32:00,27.0,11.0,-100.00,SSE,154,3.0,7.0,50,0.01,,,0.10,92.000000,,2013-03-04 21:32:00,
2013-03-04 14:43:00,27.0,11.0,-100.00,SSE,154,3.0,7.0,50,0.01,,,0.10,92.000000,,2013-03-04 21:43:00,
2013-03-04 14:52:00,27.0,11.0,-100.00,SSE,154,3.0,7.0,50,0.01,,,0.10,92.000000,,2013-03-04 21:52:00,
2013-03-04 15:01:00,27.0,11.0,-100.00,SSE,154,3.0,7.0,50,0.01,,,0.10,92.000000,,2013-03-04 22:01:00,
2013-03-04 15:22:00,30.0,13.0,-100.00,SE,136,4.0,8.0,48,0.00,,,0.10,132.000000,,2013-03-04 22:22:00,
2013-03-04 15:32:00,30.0,13.0,-100.00,SE,136,4.0,8.0,48,0.00,,,0.10,132.000000,,2013-03-04 22:32:00,
2013-03-04 15:42:00,30.0,13.0,-100.00,SE,136,4.0,8.0,48,0.00,,,0.10,132.000000,,2013-03-04 22:42:00,
2013-03-04 15:52:00,30.0,13.0,-100.00,SE,136,4.0,8.0,48,0.00,,,0.10,132.000000,,2013-03-04 22:52:00,
2013-03-04 16:01:00,30.0,13.0,-100.00,SE,136,4.0,8.0,48,0.00,,,0.10,132.000000,,2013-03-04 23:01:00,
2013-03-04 16:32:00,27.0,10.0,-100.00,SSE,165,3.0,9.0,48,0.00,,,0.10,90.000000,,2013-03-04 23:32:00,
2013-03-04 16:42:00,27.0,10.0,-100.00,SSE,165,3.0,9.0,48,0.00,,,0.10,90.000000,,2013-03-04 23:42:00,
2013-03-04 16:52:00,27.0,10.0,-100.00,SSE,165,3.0,9.0,48,0.00,,,0.10,90.000000,,2013-03-04 23:52:00,
2013-03-04 17:01:00,27.0,10.0,-100.00,SSE,165,3.0,9.0,48,0.00,,,0.10,90.000000,,2013-03-05 00:01:00,
2013-03-04 17:32:00,25.0,9.0,-100.00,WNW,283,2.0,6.0,50,0.00,,,0.10,32.000000,,2013-03-05 00:32:00,
2013-03-04 17:42:00,25.0,9.0,-100.00,WNW,283,2.0,6.0,50,0.00,,,0.10,32.000000,,2013-03-05 00:42:00,
2013-03-04 17:52:00,25.0,9.0,-100.00,WNW,283,2.0,6.0,50,0.00,,,0.10,32.000000,,2013-03-05 00:52:00,
2013-03-04 18:01:00,25.0,9.0,-100.00,WNW,283,2.0,6.0,50,0.00,,,0.10,32.000000,,2013-03-05 01:01:00,
2013-03-04 18:33:00,22.0,9.0,-100.00,WNW,294,2.0,4.0,57,0.00,,,0.10,8.000000,,2013-03-05 01:33:00,
2013-03-04 18:42:00,22.0,9.0,-100.00,WNW,294,2.0,4.0,57,0.00,,,0.10,8.000000,,2013-03-05 01:42:00,
2013-03-04 18:52:00,22.0,9.0,-100.00,WNW,294,2.0,4.0,57,0.00,,,0.10,8.000000,,2013-03-05 01:52:00,
2013-03-04 19:01:00,22.0,9.0,-100.00,WNW,294,2.0,4.0,57,0.00,,,0.10,8.000000,,2013-03-05 02:01:00,
2013-03-04 19:32:00,20.0,8.0,-100.00,WNW,295,2.0,4.0,59,0.00,,,0.10,2.000000,,2013-03-05 02:32:00,
2013-03-04 19:42:00,20.0,8.0,-100.00,WNW,295,2.0,4.0,59,0.00,,,0.10,2.000000,,2013-03-05 02:42:00,
2013-03-04 19:52:00,20.0,8.0,-100.00,WNW,295,2.0,4.0,59,0.00,,,0.10,2.000000,,2013-03-05 02:52:00,
2013-03-04 20:01:00,20.0,8.0,-100.00,WNW,295,2.0,4.0,59,0.00,,,0.10,2.000000,,2013-03-05 03:01:00,
2013-03-04 20:22:00,20.0,8.0,-100.00,NW,315,2.0,4.0,58,0.00,,,0.10,0.000000,,2013-03-05 03:22:00,
2013-03-04 20:32:00,20.0,8.0,-100.00,NW,315,2.0,4.0,58,0.00,,,0.10,0.000000,,2013-03-05 03:32:00,
2013-03-04 20:42:00,20.0,8.0,-100.00,NW,315,2.0,4.0,58,0.00,,,0.10,0.000000,,2013-03-05 03:42:00,
2013-03-04 20:52:00,20.0,8.0,-100.00,NW,315,2.0,4.0,58,0.00,,,0.10,0.000000,,2013-03-05 03:52:00,
2013-03-04 21:01:00,20.0,8.0,-100.00,NW,315,2.0,4.0,58,0.00,,,0.10,0.000000,,2013-03-05 04:01:00,
2013-03-04 21:32:00,19.0,7.0,-100.00,WNW,294,2.0,4.0,59,0.00,,,0.10,0.000000,,2013-03-05 04:32:00,
2013-03-04 21:42:00,19.0,7.0,-100.00,WNW,294,2.0,4.0,59,0.00,,,0.10,0.000000,,2013-03-05 04:42:00,
2013-03-04 21:52:00,19.0,7.0,-100.00,WNW,294,2.0,4.0,59,0.00,,,0.10,0.000000,,2013-03-05 04:52:00,
2013-03-04 22:01:00,19.0,7.0,-100.00,WNW,294,2.0,4.0,59,0.00,,,0.10,0.000000,,2013-03-05 05:01:00,
2013-03-04 22:22:00,19.0,7.0,-100.00,WNW,293,2.0,3.0,59,0.00,,,0.10,0.000000,,2013-03-05 05:22:00,
2013-03-04 22:32:00,19.0,7.0,-100.00,WNW,293,2.0,3.0,59,0.00,,,0.10,0.000000,,2013-03-05 05:32:00,
2013-03-04 22:42:00,19.0,7.0,-100.00,WNW,293,2.0,3.0,59,0.00,,,0.10,0.000000,,2013-03-05 05:42:00,
2013-03-04 22:52:00,19.0,7.0,-100.00,WNW,293,2.0,3.0,59,0.00,,,0.10,0.000000,,2013-03-05 05:52:00,
2013-03-04 23:01:00,19.0,7.0,-100.00,WNW,293,2.0,3.0,59,0.00,,,0.10,0.000000,,2013-03-05 06:01:00,
2013-03-04 23:22:00,19.0,7.0,-100.00,WSW,256,1.0,2.0,60,0.00,,,0.10,0.000000,,2013-03-05 06:22:00,
2013-03-04 23:32:00,19.0,7.0,-100.00,WSW,256,1.0,2.0,60,0.00,,,0.10,0.000000,,2013-03-05 06:32:00,
2013-03-04 23:42:00,19.0,7.0,-100.00,WSW,256,1.0,2.0,60,0.00,,,0.10,0.000000,,2013-03-05 06:42:00,
2013-03-04 23:52:00,19.0,7.0,-100.00,WSW,256,1.0,2.0,60,0.00,,,0.10,0.000000,,2013-03-05 06:52:00,